Location: Poughquag
(41.6090°N, 73.6820°W)
Time: 23:02:55
(UTC-04:00)

X-37B - Pass Details

Date: 13 June 2023
Orbit: 277 x 277 km, 45.0° (Epoch: 01 November)

Event Time Altitude Azimuth Distance (km) Brightness Sun altitude
Exits shadow 04:15:10 10° 276° (W) 1,101 2.5 -10.3°
Reaches altitude 10° 04:15:10 10° 276° (W) 1,100 2.5 -10.3°
Maximum altitude 04:17:31 42° 349° (N) 413 1.0 -10.0°
Drops below altitude 10° 04:19:53 10° 64° (ENE) 1,102 4.3 -9.7°
Sets 04:21:51 0° 71° (ENE) 1,916 5.5 -9.4°
